weather.gov     
National Weather Service

Terminal Aerodrome Forecast
NWS Homepage
This page is being discontinued on March 12, 2014.
The same data is available at this site. Please update your bookmarks.
Thank you, and we apologize for the inconvenience.
Please send an email to SR-SRH.Webmaster@noaa.gov with any concerns.


Current Version
Previous Version:    01  02  03  04  05  06  07  08  09  10  11  12  13  14  15  16  17  18  19  20  21  22  23  24  25  
[Printable]
055
FTUS43 KARX 222330
TAFRST
TAF
KRST 222330Z 2300/2324 16014G21KT P6SM BKN100
     FM230600 18012KT P6SM VCSH SCT035 BKN070
     FM230900 18013KT 4SM -SHRA BKN020
     FM231100 18012KT 4SM -SHRA BKN008
     FM231500 22008KT P6SM SCT010 BKN050=


055
FTUS43 KARX 222330
TAFRST
TAF
KRST 222330Z 2300/2324 16014G21KT P6SM BKN100
     FM230600 18012KT P6SM VCSH SCT035 BKN070
     FM230900 18013KT 4SM -SHRA BKN020
     FM231100 18012KT 4SM -SHRA BKN008
     FM231500 22008KT P6SM SCT010 BKN050=




U.S. Dept. of Commerce
NOAA National Weather Service
1325 East West Highway
Silver Spring, MD 20910
E-mail: w-nws.webmaster@noaa.gov
Page last modified: May 16, 2007
NATIONAL WEATHER SERVICE: for Safety, for Work, for Fun - FOR LIFE